Location: Nairn
(57.5833°N, 3.8667°W)
Time: 17:33:43
(UTC+00:00)

S-56A Canister/Altair - Pass Details

Date: 03 December 2020
Orbit: 633 x 2499 km, 38.9° (Epoch: 19 January)

Event Time Altitude Azimuth Distance (km) Brightness Sun altitude
Rises 17:03:59 0° 199° (SSW) 6,016 12.8 -10.8°
Reaches altitude 10° 17:10:23 10° 181° (S) 4,757 11.9 -11.6°
Maximum altitude 17:16:47 15° 151° (SSE) 3,956 11.1 -12.4°
Drops below altitude 10° 17:22:20 10° 120° (ESE) 4,008 10.8 -13.1°
Enters shadow 17:24:48 - 108° (ESE) 4,288 10.9 -13.4°
Sets 17:26:53 0° 100° (E) 4,627 - -13.7°
